Weather History for KJAS - February, 2013

Change the Weather History Date:

Wednesday, February 6, 2013

  Actual Average (KLFK) Record (KLFK)
Temperature  
Mean Temperature 60 °F 51 °F  
Max Temperature 62 °F 62 °F 79 °F (1969)
Min Temperature 57 °F 40 °F 22 °F (1984)
Degree Days  
Heating Degree Days 6 14  
Month to date heating degree days 88  
Since 1 July heating degree days 1368  
Cooling Degree Days 0 0  
Month to date cooling degree days 0  
Year to date cooling degree days 8  
Growing Degree Days 10 (Base 50)    
Moisture  
Dew Point 58 °F    
Average Humidity 94    
Maximum Humidity 97    
Minimum Humidity 91    
Precipitation  
Precipitation 0.19 in 0.14 in 1.11 in (1979)
Month to date precipitation 0.82  
Year to date precipitation 5.00  
Snow  
Snow 0.00 in - - ()
Month to date snowfall  
Since 1 July snowfall  
Snow Depth -    
Sea Level Pressure  
Sea Level Pressure 30.03 in    
Wind  
Wind Speed 3 mph (East)    
Max Wind Speed 9 mph    
Max Gust Speed -    
Visibility 6 miles    
Events Rain    
T = Trace of Precipitation, MM = Missing Value Source: NWS Daily Summary

Daily Weather History Graph

Daily Weather History Graph

Search for Another Location

Airport or City:

Trip Planner

Search our weather history database for the weather conditions in past years. The results will help you decide how hot, cold, wet, or windy it might be!

Date:

Astronomy

Feb. 06, 2013 Rise Set
Actual Time 7:04 AM CST 5:56 PM CST
Civil Twilight 6:39 AM CST 6:21 PM CST
Nautical Twilight 6:10 AM CST 6:50 PM CST
Astronomical Twilight 5:42 AM CST 7:18 PM CST
Moon 3:41 AM CST (2/6) 2:22 PM CST (2/6)
Length of Visible Light 11h 42m
Length of Day
10h 52m
Waning Crescent, 17% of the Moon is Illuminated
Feb 6
Waning Crescent
Feb 10
New
Feb 17
First Quarter
Feb 25
Full
Mar 4
Last Quarter

Hourly Weather History & Observations

Time (CST) Temp. Dew Point Humidity Pressure Visibility Wind Dir Wind Speed Gust Speed Precip Events Conditions
12:15 AM 59.0 °F 57.9 °F 96% 30.05 in 5.0 mi Calm Calm - N/A   Overcast
12:35 AM 59.0 °F 57.7 °F 96% 30.05 in 4.0 mi Calm Calm - N/A   Overcast
1:15 AM 58.3 °F 57.4 °F 97% 30.05 in 3.0 mi East 4.6 mph - N/A   Mostly Cloudy
1:35 AM 58.1 °F 57.2 °F 97% 30.05 in 2.0 mi East 4.6 mph - N/A   Overcast
1:55 AM 57.9 °F 56.8 °F 96% 30.06 in 2.0 mi East 3.5 mph - N/A   Overcast
2:35 AM 57.7 °F 56.8 °F 97% 30.06 in 5.0 mi Calm Calm - N/A   Overcast
2:55 AM 58.1 °F 56.7 °F 95% 30.06 in 5.0 mi Calm Calm - N/A   Overcast
3:15 AM 58.1 °F 56.7 °F 95% 30.06 in 5.0 mi Calm Calm - N/A   Overcast
3:35 AM 58.3 °F 56.7 °F 94% 30.06 in 5.0 mi Calm Calm - N/A   Overcast
3:55 AM 58.3 °F 56.7 °F 94% 30.06 in 5.0 mi Calm Calm - N/A   Overcast
4:15 AM 58.5 °F 56.8 °F 94% 30.07 in 5.0 mi Calm Calm - N/A   Overcast
4:35 AM 58.6 °F 56.8 °F 94% 30.06 in 5.0 mi East 3.5 mph - N/A   Overcast
4:55 AM 58.5 °F 56.7 °F 94% 30.07 in 5.0 mi Calm Calm - N/A   Overcast
5:15 AM 58.6 °F 56.8 °F 94% 30.08 in 5.0 mi Calm Calm - N/A   Overcast
5:35 AM 58.6 °F 56.8 °F 94% 30.09 in 5.0 mi Calm Calm - N/A   Overcast
5:55 AM 58.5 °F 56.8 °F 94% 30.08 in 4.0 mi East 4.6 mph - N/A   Overcast
6:15 AM 58.3 °F 56.8 °F 95% 30.08 in 4.0 mi East 3.5 mph - N/A   Overcast
6:35 AM 58.3 °F 57.2 °F 96% 30.08 in 2.5 mi Calm Calm - N/A   Overcast
7:15 AM 58.1 °F 56.8 °F 96% 30.09 in 3.0 mi East 3.5 mph - N/A   Overcast
7:35 AM 57.9 °F 56.7 °F 96% 30.08 in 4.0 mi East 8.1 mph - N/A   Overcast
7:55 AM 57.6 °F 56.3 °F 96% 30.07 in 4.0 mi East 6.9 mph - N/A   Overcast
8:15 AM 57.6 °F 56.3 °F 96% 30.07 in 4.0 mi ENE 6.9 mph - N/A   Overcast
8:35 AM 57.6 °F 56.3 °F 96% 30.08 in 4.0 mi East 5.8 mph - N/A   Overcast
8:55 AM 57.9 °F 56.3 °F 94% 30.09 in 4.0 mi ENE 5.8 mph - N/A   Overcast
9:15 AM 58.3 °F 56.5 °F 94% 30.09 in 4.0 mi East 4.6 mph - N/A   Mostly Cloudy
9:35 AM 58.3 °F 56.3 °F 93% 30.10 in 5.0 mi East 4.6 mph - N/A Rain Light Rain
9:55 AM 58.3 °F 56.5 °F 94% 30.10 in 4.0 mi ESE 4.6 mph - 0.02 in Rain Light Rain
10:15 AM 58.5 °F 56.8 °F 94% 30.11 in 4.0 mi East 3.5 mph - 0.01 in Rain Rain
10:35 AM 58.8 °F 57.4 °F 95% 30.10 in 4.0 mi East 3.5 mph - 0.02 in Rain Light Rain
10:55 AM 59.2 °F 57.9 °F 96% 30.09 in 4.0 mi East 5.8 mph - 0.02 in Rain Light Rain
11:15 AM 59.7 °F 58.3 °F 95% 30.09 in 4.0 mi East 5.8 mph - N/A   Light Drizzle
11:35 AM 60.1 °F 58.6 °F 95% 30.08 in 5.0 mi East 5.8 mph - N/A Rain Light Rain
11:55 AM 60.8 °F 59.2 °F 94% 30.07 in 5.0 mi East 5.8 mph - N/A   Light Drizzle
12:15 PM 61.2 °F 59.4 °F 94% 30.05 in 7.0 mi East 5.8 mph - N/A Rain Light Rain
12:35 PM 61.2 °F 59.4 °F 94% 30.05 in 7.0 mi ESE 4.6 mph - 0.01 in Rain Rain
12:55 PM 61.3 °F 59.5 °F 94% 30.04 in 5.0 mi East 5.8 mph - 0.01 in Rain Light Rain
1:15 PM 61.9 °F 60.1 °F 94% 30.03 in 5.0 mi East 3.5 mph - N/A Rain Rain
1:35 PM 62.1 °F 60.3 °F 94% 30.01 in 5.0 mi East 3.5 mph - N/A Rain Rain
1:55 PM 62.4 °F 60.3 °F 93% 30.00 in 7.0 mi East 5.8 mph - N/A   Light Drizzle
2:15 PM 62.6 °F 60.3 °F 92% 30.00 in 7.0 mi ESE 3.5 mph - N/A   Mostly Cloudy
2:35 PM 62.8 °F 60.3 °F 91% 30.01 in 7.0 mi SE 3.5 mph - N/A Rain Light Rain
2:55 PM 62.6 °F 60.6 °F 93% 30.03 in 3.0 mi SSE 3.5 mph - 0.03 in Rain Rain
3:15 PM 62.1 °F 60.4 °F 94% 30.03 in 3.0 mi Calm Calm - 0.04 in Rain Rain
3:35 PM 61.7 °F 60.3 °F 95% 30.01 in 4.0 mi ESE 5.8 mph - 0.07 in Rain Light Rain
3:55 PM 61.7 °F 60.1 °F 94% 29.99 in 5.0 mi East 6.9 mph - 0.09 in Rain Light Rain
4:15 PM 61.3 °F 59.9 °F 95% 29.98 in 5.0 mi East 9.2 mph - 0.01 in Rain Light Rain
4:55 PM 61.3 °F 59.9 °F 95% 29.96 in 7.0 mi ESE 8.1 mph - 0.02 in   Drizzle
5:15 PM 61.2 °F 59.7 °F 95% 29.96 in 10.0 mi ESE 8.1 mph - N/A   Overcast
5:35 PM 61.0 °F 59.2 °F 94% 29.95 in 10.0 mi East 6.9 mph - N/A   Light Drizzle
5:55 PM 60.8 °F 59.0 °F 94% 29.96 in 10.0 mi East 6.9 mph - N/A   Overcast
6:15 PM 60.8 °F 59.0 °F 94% 29.95 in 10.0 mi East 8.1 mph - N/A   Overcast
6:35 PM 60.8 °F 58.6 °F 93% 29.94 in 10.0 mi East 5.8 mph - N/A   Mostly Cloudy
6:55 PM 60.8 °F 58.5 °F 92% 29.95 in 10.0 mi East 6.9 mph - N/A   Mostly Cloudy
7:15 PM 60.8 °F 58.3 °F 91% 29.94 in 10.0 mi East 5.8 mph - N/A   Mostly Cloudy
7:35 PM 60.6 °F 58.3 °F 92% 29.94 in 10.0 mi East 6.9 mph - N/A   Mostly Cloudy
7:55 PM 60.3 °F 58.1 °F 93% 29.96 in 10.0 mi ESE 4.6 mph - N/A   Mostly Cloudy
8:15 PM 60.4 °F 58.3 °F 93% 29.97 in 10.0 mi East 4.6 mph - N/A   Overcast
8:35 PM 60.4 °F 58.1 °F 92% 29.97 in 10.0 mi East 3.5 mph - N/A   Overcast
8:55 PM 60.4 °F 58.1 °F 92% 29.98 in 10.0 mi Calm Calm - N/A   Overcast
9:15 PM 60.4 °F 58.1 °F 92% 29.98 in 10.0 mi Calm Calm - N/A   Mostly Cloudy
9:35 PM 60.3 °F 58.1 °F 93% 29.99 in 10.0 mi Calm Calm - N/A   Overcast
9:55 PM 60.1 °F 57.9 °F 93% 29.99 in 10.0 mi Calm Calm - N/A   Scattered Clouds
10:15 PM 59.4 °F 57.6 °F 94% 29.98 in 5.0 mi Calm Calm - N/A   Mostly Cloudy
10:35 PM 59.4 °F 58.1 °F 96% 29.98 in 7.0 mi Calm Calm - N/A   Overcast
10:55 PM 59.7 °F 58.1 °F 94% 29.98 in 10.0 mi Calm Calm - N/A   Overcast
11:15 PM 59.9 °F 58.1 °F 94% 29.97 in 7.0 mi Calm Calm - N/A   Overcast
11:35 PM 59.9 °F 58.1 °F 94% 29.97 in 7.0 mi Calm Calm - N/A   Overcast
11:55 PM 59.9 °F 58.1 °F 94% 29.96 in 7.0 mi Calm Calm - N/A   Overcast